Theta_e
337 336 337 334 335 334 333 331 331 327 324 322 322 323 322 321 322 322 321 321 322 323
334 333 332 332 332 330 329 326 324 323 319 319 321 321 321 320 319 322 323 324 324 323
332 332 330 329 327 326 324 321 320 318 318 322 322 322 323 322 320 321 322 321 320 321
332 331 330 327 324 323 322 320 319 318 319 322 322 322 321 323 323 323 324 318 320 325
331 329 327 327 327 328 326 323 320 320 321 321 320 320 322 321 323 320 320 320 322 322
329 327 326 326 327 325 323 321 321 321 320 320 319 320 319 319 319 319 319 320 322 322
328 327 326 325 323 322 322 320 319 319 319 319 318 318 317 318 319 320 322 323 324 325
328 326 326 323 322 321 319 319 318 317 317 317 319 322 318 320 319 320 321 324 324 324
329 326 324 323 319 318 317 318 317 317 318 319 324 325 326 323 319 319 318 317 318 321
326 324 322 320 319 318 319 320 321 321 321 321 322 326 324 327 318 317 317 317 318 321
324 323 323 322 321 320 321 321 320 321 322 322 324 326 324 325 320 318 320 321 322 321
324 324 323 322 321 323 324 321 323 321 320 319 321 323 323 321 319 320 321 323 324 323
325 323 322 321 321 322 321 320 322 323 323 323 322 322 320 319 319 319 320 319 320 324
323 321 321 321 323 322 320 320 320 321 322 323 323 323 320 318 319 321 319 319 319 319
Wind_Speed
4 4 4 4 5 6 6 5 6 6 4 6 6 6 6 5 5 5 5 9 7 5
6 6 6 7 6 6 7 6 6 4 5 5 6 6 6 3 5 3 4 5 7 5
7 7 6 7 9 7 6 5 4 5 4 4 4 3 3 2 2 4 2 3 5 2
7 7 8 5 5 6 6 5 4 3 5 4 2 1 2 1 2 2 1 0 2 4
8 7 7 5 6 6 6 5 5 3 2 2 1 2 1 2 3 2 3 3 3 4
7 7 7 6 5 6 6 4 4 4 3 4 4 4 3 1 1 1 3 4 3 5
6 6 6 6 5 5 5 5 5 4 5 5 4 4 4 4 4 4 4 5 5 5
6 6 7 6 6 5 5 4 5 5 4 4 4 4 6 5 5 5 5 6 5 5
7 6 7 7 6 6 5 5 5 6 5 6 4 9 8 9 6 5 5 6 6 6
6 6 7 7 7 7 7 5 7 7 6 7 7 11 10 10 6 6 6 6 6 6
7 7 7 7 7 6 5 7 6 7 7 6 6 11 8 11 7 6 7 7 7 7
7 7 7 6 6 6 4 3 4 4 5 5 7 9 9 6 5 6 7 7 7 7
6 5 6 6 5 5 2 3 3 4 5 8 7 9 10 7 4 6 6 6 7 12
4 4 2 2 2 1 2 4 5 6 7 7 7 8 11 11 6 7 5 5 6 6
Wind_Direction
61 97 91 75 99 106 101 99 94 88 56 91 84 58 39 54 62 42 29 40 39 44
80 63 88 85 86 80 90 95 99 121 114 95 77 60 74 56 66 75 66 50 31 13
113 102 97 106 96 104 105 106 122 112 97 85 99 114 98 49 78 65 358 76 93 56
114 108 115 115 109 106 103 102 100 115 123 109 95 355 43 47 271 260 272 94 253 260
116 117 122 124 119 124 106 115 132 145 120 103 184 156 215 321 33 300 13 330 350 325
133 138 136 127 115 112 129 154 160 183 174 194 187 188 212 151 342 337 293 293 301 290
120 113 117 124 135 150 169 178 183 195 196 198 197 201 203 215 231 250 257 278 279 269
135 144 140 150 158 161 166 195 156 166 189 208 222 222 216 230 242 251 263 269 266 271
155 147 157 150 160 170 196 191 188 206 205 222 230 244 237 201 215 236 255 271 279 273
153 150 148 159 164 189 203 198 211 225 220 228 233 242 244 221 213 228 244 256 266 273
155 170 170 170 187 209 206 214 221 239 242 238 243 242 244 238 216 223 237 241 246 242
177 181 181 200 208 215 210 224 229 228 255 261 265 256 257 240 217 234 244 245 247 231
194 183 173 205 206 216 197 247 269 292 270 250 253 256 244 212 204 230 241 256 262 268
151 144 180 228 200 184 247 266 266 259 263 262 245 259 242 219 209 227 233 233 253 258